CW8078 Weather Reports


time (UTC)temp
C
wind
direction
speed
KPH
gust
KPH
rain 1hr
cm
rain 24hr
cm
rain mn
cm
humidity
%
barometer
mb
20260904144303 28 163 0.0 0.0 0.00 0.00 0.00 72 1012.5
20260904143802 28 163 0.0 0.0 0.00 0.00 0.00 73 1012.4
20260904143303 28 163 0.0 0.0 0.00 0.00 0.00 74 1012.4
20260904141802 28 163 0.0 0.0 0.00 0.00 0.00 76 1012.3
20260904140303 27 129 0.0 0.0 0.00 0.00 0.00 79 1012.3
20260904134802 26 129 0.0 0.0 0.00 0.00 0.00 81 1012.3
20260904134302 26 129 0.0 0.0 0.00 0.00 0.00 82 1012.3
20260904133803 26 129 0.0 0.0 0.00 0.00 0.00 83 1012.4
20260904133303 25 129 0.0 0.0 0.00 0.00 0.00 84 1012.3
20260904131303 23 129 0.0 0.0 0.00 0.00 0.00 89 1012.3
20260904130803 23 129 0.0 0.0 0.00 0.00 0.00 89 1012.2
20260904130302 23 129 0.0 0.0 0.00 0.00 0.00 90 1012.2
20260904124302 22 129 0.0 0.0 0.00 0.00 0.00 90 1012.1
20260904123802 22 129 0.0 0.0 0.00 0.00 0.00 90 1012.1
20260904123303 22 129 0.0 0.0 0.00 0.00 0.00 89 1012.0
20260904120803 22 129 0.0 0.0 0.00 0.00 0.00 89 1011.8
20260904120303 22 129 0.0 0.0 0.00 0.00 0.00 88 1011.8
20260904114303 23 129 0.0 0.0 0.00 0.00 0.00 88 1011.6
20260904113303 23 129 0.0 0.0 0.00 0.00 0.00 87 1011.5
20260904111802 23 129 0.0 0.0 0.00 0.00 0.00 86 1011.4
20260904111303 23 129 0.0 0.0 0.00 0.00 0.00 86 1011.4
20260904110803 23 129 0.0 0.0 0.00 0.00 0.00 86 1011.3
20260904110303 23 129 0.0 0.0 0.00 0.00 0.00 85 1011.3
20260904104802 23 129 0.0 0.0 0.00 0.00 0.00 85 1011.1
20260904104302 23 129 0.0 0.0 0.00 0.00 0.00 86 1011.1
20260904103802 23 129 0.0 0.0 0.00 0.00 0.00 87 1011.1
20260904101303 23 129 0.0 0.0 0.00 0.00 0.00 87 1011.0
20260904100802 23 129 0.0 0.0 0.00 0.00 0.00 88 1011.0
20260904100303 23 129 0.0 0.0 0.00 0.00 0.00 88 1011.0
20260904093803 23 129 0.0 0.0 0.00 0.00 0.00 87 1010.8
20260904093302 23 129 0.0 0.0 0.00 0.00 0.00 87 1010.7
20260904091803 23 129 0.0 0.0 0.00 0.00 0.00 87 1010.6
20260904084803 23 129 0.0 0.0 0.00 0.00 0.00 87 1010.4
20260904084303 23 129 0.0 0.0 0.00 0.00 0.00 87 1010.4
20260904083802 23 129 0.0 0.0 0.00 0.00 0.00 87 1010.4
20260904081802 23 129 0.0 0.0 0.00 0.00 0.00 86 1010.3
20260904080803 23 129 0.0 0.0 0.00 0.00 0.00 86 1010.4
20260904080303 24 129 0.0 0.0 0.00 0.00 0.00 86 1010.4
20260904074803 24 129 0.0 0.0 0.00 0.00 0.00 86 1010.4
20260904074302 24 129 0.0 0.0 0.00 0.00 0.00 86 1010.4
20260904073803 24 129 0.0 0.0 0.00 0.00 0.00 85 1010.3
20260904073303 24 129 0.0 0.0 0.00 0.00 0.00 85 1010.3
20260904071803 25 129 0.0 0.0 0.00 0.00 0.00 85 1010.3
20260904071303 25 129 0.0 0.0 0.00 0.00 0.00 85 1010.2
20260904070803 25 129 0.0 0.0 0.00 0.00 0.00 84 1010.2
20260904070303 25 129 0.0 0.0 0.00 0.00 0.00 85 1010.1
20260904064803 25 129 0.0 0.0 0.00 0.00 0.00 84 1010.0
20260904064303 25 129 0.0 0.0 0.00 0.00 0.00 83 1010.1
20260904063803 25 129 0.0 0.0 0.00 0.00 0.00 83 1010.0
20260904063303 25 129 0.0 0.0 0.00 0.00 0.00 81 1010.0
20260904061803 26 129 0.0 0.0 0.00 0.00 0.00 82 1010.0
20260904061303 26 129 0.0 0.0 0.00 0.00 0.00 81 1010.0
20260904060803 26 129 0.0 0.0 0.00 0.00 0.00 80 1010.0
20260904054803 26 129 0.0 0.0 0.00 0.00 0.00 79 1010.0
20260904054303 26 129 0.0 0.0 0.00 0.00 0.00 79 1009.9
20260904053803 26 129 0.0 0.0 0.00 0.00 0.00 80 1009.9
20260904053303 26 129 0.0 0.0 0.00 0.00 0.00 79 1009.8
20260904051803 27 129 0.0 0.0 0.00 0.00 0.00 76 1009.7
20260904051303 27 129 0.0 0.0 0.00 0.00 0.00 76 1009.8
20260904050804 27 129 0.0 0.0 0.00 0.00 0.00 76 1009.7
20260904050303 27 129 0.0 0.0 0.00 0.00 0.00 75 1009.7
20260904044803 28 129 0.0 0.0 0.00 0.00 0.00 73 1009.8
20260904044303 28 129 0.0 0.0 0.00 0.00 0.00 72 1009.7
20260904043303 28 129 0.0 0.0 0.00 0.00 0.00 72 1009.8
20260904041303 28 138 0.0 0.0 0.00 0.00 0.00 71 1009.7
20260904040803 28 151 0.0 0.0 0.00 0.00 0.00 71 1009.8
20260904040303 28 153 0.0 0.0 0.00 0.00 0.00 71 1009.9
20260904034803 29 132 0.0 0.0 0.00 0.00 0.00 70 1009.9
20260904034303 29 98 0.0 0.0 0.00 0.00 0.00 70 1009.9
20260904033303 29 160 0.0 0.0 0.00 0.00 0.00 70 1009.8
20260904031803 29 159 0.0 0.0 0.00 0.00 0.00 70 1009.8
20260904031303 29 143 0.0 0.0 0.00 0.00 0.00 70 1009.8
20260904030803 29 164 0.0 0.0 0.00 0.00 0.00 69 1009.8
20260904030303 29 152 0.0 0.0 0.00 0.00 0.00 69 1009.8
20260904024803 29 128 0.0 0.0 0.00 0.00 0.00 69 1009.8
20260904024303 29 355 0.0 0.0 0.00 0.00 0.00 69 1009.7
20260904023803 29 355 0.0 0.0 0.00 0.00 0.00 69 1009.6
20260904023304 29 355 0.0 0.0 0.00 0.00 0.00 70 1009.6
20260904021803 29 355 0.0 0.0 0.00 0.00 0.00 70 1009.5
20260904021303 29 355 0.0 0.0 0.00 0.00 0.00 70 1009.5
20260904020803 29 355 0.0 0.0 0.00 0.00 0.00 70 1009.4
20260904014803 30 355 0.0 0.0 0.00 0.00 0.00 70 1009.2
20260904014303 30 355 0.0 0.0 0.00 0.00 0.00 70 1009.1
20260904013303 30 355 0.0 0.0 0.00 0.00 0.00 70 1009.0
20260904011803 30 355 0.0 0.0 0.00 0.00 0.00 70 1009.0
20260904011303 30 355 0.0 0.0 0.00 0.00 0.00 70 1008.9
20260904010803 30 355 0.0 0.0 0.00 0.00 0.00 70 1008.9
20260904003303 31 355 0.0 0.0 0.00 0.00 0.00 68 1008.9
20260904001803 31 355 0.0 0.0 0.00 0.00 0.00 66 1008.8
20260904001303 31 355 0.0 0.0 0.00 0.00 0.00 65 1008.9
20260904000803 31 355 0.0 0.0 0.00 0.00 0.00 64 1008.8
20260904000303 31 355 0.0 0.0 0.00 0.00 0.00 63 1008.9
20260903234804 32 355 0.0 0.0 0.00 0.00 0.00 62 1008.9
20260903234303 32 355 0.0 0.0 0.00 0.00 0.00 62 1008.8
20260903233803 32 355 0.0 0.0 0.00 0.00 0.00 60 1008.8
20260903233303 32 355 0.0 0.0 0.00 0.00 0.00 60 1008.8
20260903231803 33 355 0.0 0.0 0.00 0.00 0.00 57 1008.8
20260903231304 33 152 0.0 0.0 0.00 0.00 0.00 57 1008.8
20260903230803 33 152 0.0 0.0 0.00 0.00 0.00 56 1008.8
20260903230304 33 152 0.0 0.0 0.00 0.00 0.00 55 1008.8
20260903224304 33 152 0.0 0.0 0.00 0.00 0.00 54 1008.6
20260903223803 34 98 0.0 0.0 0.00 0.00 0.00 55 1008.7
20260903223303 34 98 0.0 0.0 0.00 0.00 0.00 55 1008.7
20260903221803 35 98 0.0 0.0 0.00 0.00 0.00 49 1008.7
20260903221304 35 98 0.0 0.0 0.00 0.00 0.00 48 1008.7
20260903220803 35 98 0.0 0.0 0.00 0.00 0.00 48 1008.8
20260903220304 35 144 0.0 0.0 0.00 0.00 0.00 47 1008.8
20260903214804 35 177 0.0 0.0 0.00 0.00 0.00 48 1008.8
20260903214304 35 177 0.0 0.0 0.00 0.00 0.00 48 1008.8
20260903213804 35 193 0.0 1.6 0.00 0.00 0.00 48 1008.9
20260903213303 35 24 0.0 1.6 0.00 0.00 0.00 50 1008.9
20260903211804 35 169 0.0 0.0 0.00 0.00 0.00 52 1009.0
20260903211303 35 166 0.0 0.0 0.00 0.00 0.00 48 1009.1
20260903210803 35 177 0.0 0.0 0.00 0.00 0.00 47 1009.1
20260903210304 35 128 0.0 0.0 0.00 0.00 0.00 46 1009.2
20260903204803 35 140 0.0 0.0 0.00 0.00 0.00 46 1009.2
20260903204303 35 142 0.0 0.0 0.00 0.00 0.00 46 1009.3
20260903203803 35 156 0.0 0.0 0.00 0.00 0.00 48 1009.3
20260903201803 36 249 0.0 0.0 0.00 0.00 0.00 47 1009.5
20260903201303 36 251 0.0 0.0 0.00 0.00 0.00 47 1009.5
20260903200803 36 153 0.0 0.0 0.00 0.00 0.00 44 1009.6
20260903200303 36 145 0.0 1.6 0.00 0.00 0.00 45 1009.7
20260903194804 36 136 0.0 0.0 0.00 0.00 0.00 46 1009.8
20260903194303 35 101 0.0 0.0 0.00 0.00 0.00 49 1009.9
20260903193803 35 133 0.0 0.0 0.00 0.00 0.00 49 1010.0
20260903193303 36 155 0.0 1.6 0.00 0.00 0.00 47 1010.0
20260903191803 36 161 0.0 0.0 0.00 0.00 0.00 45 1010.3
20260903191303 36 173 0.0 0.0 0.00 0.00 0.00 44 1010.3
20260903190803 36 164 0.0 0.0 0.00 0.00 0.00 44 1010.4
20260903190304 36 155 0.0 1.6 0.00 0.00 0.00 50 1010.4
20260903184804 36 134 0.0 0.0 0.00 0.00 0.00 47 1010.6
20260903184303 36 328 0.0 1.6 0.00 0.00 0.00 49 1010.6
20260903180803 36 135 0.0 0.0 0.00 0.00 0.00 48 1010.9
20260903180303 36 170 0.0 0.0 0.00 0.00 0.00 49 1011.0
20260903174803 36 161 0.0 0.0 0.00 0.00 0.00 49 1011.2
20260903174303 36 147 0.0 0.0 0.00 0.00 0.00 50 1011.2
20260903173804 36 177 0.0 0.0 0.00 0.00 0.00 51 1011.3
20260903173304 36 198 0.0 0.0 0.00 0.00 0.00 50 1011.3
20260903171804 36 3 0.0 0.0 0.00 0.00 0.00 53 1011.6
20260903171303 35 180 0.0 0.0 0.00 0.00 0.00 55 1011.7
20260903170803 35 259 0.0 0.0 0.00 0.00 0.00 54 1011.7
20260903170306 35 270 0.0 0.0 0.00 0.00 0.00 54 1011.7
20260903164803 33 187 0.0 0.0 0.00 0.00 0.00 59 1011.8
20260903164303 33 163 0.0 0.0 0.00 0.00 0.00 60 1011.8
20260903163303 32 153 0.0 1.6 0.00 0.00 0.00 61 1012.0
20260903161803 32 144 0.0 0.0 0.00 0.00 0.00 60 1012.0
20260903161303 32 196 0.0 0.0 0.00 0.00 0.00 60 1012.1
20260903160804 32 185 0.0 0.0 0.00 0.00 0.00 61 1012.1
20260903160304 32 186 0.0 1.6 0.00 0.00 0.00 62 1012.1
20260903154804 31 157 0.0 0.0 0.00 0.00 0.00 67 1012.2
20260903154302 31 157 0.0 0.0 0.00 0.00 0.00 66 1012.3
20260903153802 31 157 0.0 0.0 0.00 0.00 0.00 67 1012.3
20260903153302 30 282 0.0 1.6 0.00 0.00 0.00 67 1012.3
20260903151801 30 187 0.0 0.0 0.00 0.00 0.00 70 1012.3
20260903151302 30 187 0.0 0.0 0.00 0.00 0.00 70 1012.3
20260903150801 30 187 0.0 0.0 0.00 0.00 0.00 70 1012.3
20260903150302 30 177 0.0 0.0 0.00 0.00 0.00 71 1012.2